| time (UTC) | temp C | wind direction | speed KPH | gust KPH | rain 1hr cm | rain 24hr cm | rain mn cm | humidity % | barometer mb |
| 20260506180151 | 21 | 335 | 3.2 | 3.2 | 0.00 | 0.00 | 0.00 | 75 | 1010.8 |
| 20260506175648 | 20 | 38 | 3.2 | 4.8 | 0.00 | 0.00 | 0.00 | 75 | 1011.0 |
| 20260506175145 | 20 | 21 | 3.2 | 6.4 | 0.00 | 0.00 | 0.00 | 76 | 1011.0 |
| 20260506174643 | 20 | 100 | 0.0 | 3.2 | 0.00 | 0.00 | 0.00 | 76 | 1010.6 |
| 20260506174139 | 20 | 346 | 3.2 | 4.8 | 0.00 | 0.00 | 0.00 | 75 | 1010.8 |
| 20260506173637 | 20 | 56 | 3.2 | 6.4 | 0.00 | 0.00 | 0.00 | 76 | 1010.6 |
| 20260506173133 | 20 | 264 | 1.6 | 3.2 | 0.00 | 0.00 | 0.00 | 77 | 1010.8 |
| 20260506172631 | 20 | 12 | 3.2 | 4.8 | 0.00 | 0.00 | 0.00 | 78 | 1011.1 |
| 20260506172127 | 20 | 94 | 3.2 | 3.2 | 0.00 | 0.00 | 0.00 | 77 | 1010.8 |
| 20260506171625 | 19 | 44 | 0.0 | 4.8 | 0.00 | 0.00 | 0.00 | 79 | 1011.0 |
| 20260506171122 | 18 | 347 | 4.8 | 4.8 | 0.00 | 0.00 | 0.00 | 79 | 1010.6 |
| 20260506170620 | 18 | 51 | 3.2 | 3.2 | 0.00 | 0.00 | 0.00 | 80 | 1010.3 |
| 20260506170117 | 18 | 346 | 1.6 | 4.8 | 0.00 | 0.00 | 0.00 | 79 | 1010.7 |
| 20260506165615 | 18 | 114 | 3.2 | 6.4 | 0.00 | 0.00 | 0.00 | 81 | 1011.0 |
| 20260506165111 | 18 | 45 | 3.2 | 4.8 | 0.00 | 0.00 | 0.00 | 80 | 1011.1 |
| 20260506164608 | 18 | 41 | 3.2 | 6.4 | 0.00 | 0.00 | 0.00 | 79 | 1011.0 |
| 20260506164106 | 18 | 224 | 3.2 | 4.8 | 0.00 | 0.00 | 0.00 | 82 | 1011.4 |
| 20260506163601 | 17 | 224 | 0.0 | 3.2 | 0.00 | 0.00 | 0.00 | 84 | 1011.2 |
| 20260506163057 | 17 | 18 | 1.6 | 4.8 | 0.00 | 0.00 | 0.00 | 85 | 1011.6 |
| 20260506162554 | 16 | 72 | 3.2 | 6.4 | 0.00 | 0.00 | 0.00 | 89 | 1012.0 |
| 20260506162051 | 15 | 124 | 3.2 | 3.2 | 0.00 | 0.00 | 0.00 | 91 | 1011.1 |
| 20260506161549 | 15 | 99 | 0.0 | 3.2 | 0.00 | 0.00 | 0.00 | 91 | 1011.5 |
| 20260506161045 | 15 | 145 | 0.0 | 4.8 | 0.00 | 0.00 | 0.00 | 91 | 1011.9 |
| 20260506160543 | 15 | 83 | 1.6 | 4.8 | 0.00 | 0.00 | 0.00 | 91 | 1012.2 |
| 20260506160039 | 15 | 212 | 0.0 | 8.0 | 0.00 | 0.00 | 0.00 | 91 | 1012.7 |
| 20260506155538 | 15 | 0 | 3.2 | 6.4 | 0.00 | 0.00 | 0.00 | 92 | 1012.6 |
| 20260506153709 | 16 | 248 | 0.0 | 3.2 | 0.00 | 0.00 | 0.00 | 92 | 1012.3 |
| 20260506153207 | 16 | 10 | 3.2 | 4.8 | 0.00 | 0.00 | 0.00 | 91 | 1012.1 |
| 20260506152703 | 16 | 252 | 0.0 | 4.8 | 0.00 | 0.00 | 0.00 | 91 | 1012.2 |
| 20260506152201 | 16 | 317 | 3.2 | 4.8 | 0.00 | 0.00 | 0.00 | 91 | 1012.1 |
| 20260506151700 | 17 | 7 | 3.2 | 4.8 | 0.00 | 0.00 | 0.00 | 91 | 1012.0 |
| 20260506151156 | 17 | 335 | 1.6 | 6.4 | 0.00 | 0.00 | 0.00 | 91 | 1011.6 |
| 20260506150652 | 17 | 22 | 3.2 | 6.4 | 0.00 | 0.00 | 0.00 | 91 | 1011.3 |
| 20260506150150 | 17 | 24 | 0.0 | 3.2 | 0.00 | 0.00 | 0.00 | 91 | 1010.8 |
| 20260506145646 | 17 | 196 | 1.6 | 4.8 | 0.00 | 0.00 | 0.00 | 91 | 1011.0 |
| 20260506145143 | 17 | 9 | 4.8 | 4.8 | 0.00 | 0.00 | 0.00 | 90 | 1010.8 |
| 20260506144641 | 17 | 84 | 0.0 | 3.2 | 0.00 | 0.00 | 0.00 | 90 | 1010.4 |
| 20260506144137 | 18 | 347 | 3.2 | 4.8 | 0.00 | 0.00 | 0.00 | 89 | 1010.2 |
| 20260506143635 | 18 | 330 | 3.2 | 4.8 | 0.00 | 0.00 | 0.00 | 89 | 1010.2 |
| 20260506143133 | 19 | 167 | 0.0 | 3.2 | 0.00 | 0.00 | 0.00 | 90 | 1010.3 |
| 20260506142631 | 19 | 267 | 3.2 | 4.8 | 0.00 | 0.00 | 0.00 | 90 | 1010.2 |
| 20260506142129 | 20 | 292 | 3.2 | 3.2 | 0.00 | 0.00 | 0.00 | 88 | 1009.8 |
| 20260506141626 | 20 | 293 | 1.6 | 3.2 | 0.00 | 0.00 | 0.00 | 89 | 1009.6 |
| 20260506141124 | 20 | 357 | 0.0 | 3.2 | 0.00 | 0.00 | 0.00 | 89 | 1009.4 |
| 20260506140621 | 20 | 50 | 0.0 | 3.2 | 0.00 | 0.00 | 0.00 | 88 | 1009.6 |
| 20260506140119 | 21 | 279 | 0.0 | 4.8 | 0.00 | 0.00 | 0.00 | 86 | 1009.5 |
| 20260506135615 | 22 | 19 | 3.2 | 4.8 | 0.00 | 0.00 | 0.00 | 85 | 1009.6 |
| 20260506135112 | 23 | 332 | 1.6 | 4.8 | 0.00 | 0.00 | 0.00 | 91 | 1009.2 |
| 20260506134608 | 23 | 62 | 0.0 | 1.6 | 0.00 | 0.00 | 0.00 | 92 | 1009.0 |
| 20260506134104 | 23 | 48 | 0.0 | 3.2 | 0.00 | 0.00 | 0.00 | 92 | 1008.5 |
| 20260506133602 | 23 | 76 | 0.0 | 3.2 | 0.00 | 0.00 | 0.00 | 93 | 1008.5 |
| 20260506133059 | 23 | 50 | 0.0 | 0.0 | 0.00 | 0.00 | 0.00 | 93 | 1008.8 |
| 20260506132556 | 23 | 147 | 0.0 | 1.6 | 0.00 | 0.00 | 0.00 | 93 | 1008.9 |
| 20260506132053 | 23 | 38 | 0.0 | 3.2 | 0.00 | 0.00 | 0.00 | 94 | 1008.6 |
| 20260506131550 | 23 | 99 | 0.0 | 3.2 | 0.00 | 0.00 | 0.00 | 94 | 1008.7 |
| 20260506131046 | 23 | 89 | 0.0 | 1.6 | 0.00 | 0.00 | 0.00 | 95 | 1008.5 |
| 20260506130543 | 23 | 101 | 0.0 | 3.2 | 0.00 | 0.00 | 0.00 | 95 | 1008.3 |
| 20260506130041 | 23 | 35 | 1.6 | 3.2 | 0.00 | 0.00 | 0.00 | 95 | 1008.4 |
| 20260506125539 | 23 | 55 | 0.0 | 1.6 | 0.00 | 0.00 | 0.00 | 95 | 1008.5 |
| 20260506125036 | 22 | 89 | 0.0 | 1.6 | 0.00 | 0.00 | 0.00 | 95 | 1008.3 |
| 20260506124534 | 22 | 88 | 0.0 | 1.6 | 0.00 | 0.00 | 0.00 | 95 | 1008.3 |
| 20260506124031 | 22 | 68 | 0.0 | 1.6 | 0.00 | 0.00 | 0.00 | 95 | 1007.9 |
| 20260506123529 | 22 | 44 | 0.0 | 1.6 | 0.00 | 0.00 | 0.00 | 95 | 1008.1 |
| 20260506123027 | 22 | 56 | 0.0 | 1.6 | 0.00 | 0.00 | 0.00 | 95 | 1008.1 |
| 20260506122524 | 22 | 57 | 0.0 | 1.6 | 0.00 | 0.00 | 0.00 | 95 | 1008.2 |
| 20260506122022 | 22 | 81 | 0.0 | 3.2 | 0.00 | 0.00 | 0.00 | 94 | 1007.9 |
| 20260506121519 | 22 | 60 | 1.6 | 1.6 | 0.00 | 0.00 | 0.00 | 94 | 1008.1 |
| 20260506121015 | 22 | 41 | 0.0 | 1.6 | 0.00 | 0.00 | 0.00 | 94 | 1008.3 |
| 20260506120513 | 22 | 99 | 0.0 | 1.6 | 0.00 | 0.00 | 0.00 | 94 | 1007.9 |
| 20260506120010 | 22 | 71 | 0.0 | 1.6 | 0.00 | 0.00 | 0.00 | 94 | 1008.0 |
| 20260506115508 | 22 | 89 | 0.0 | 1.6 | 0.00 | 0.00 | 0.00 | 93 | 1008.1 |
| 20260506115007 | 22 | 55 | 1.6 | 3.2 | 0.00 | 0.00 | 0.00 | 93 | 1007.9 |
| 20260506114503 | 22 | 44 | 3.2 | 3.2 | 0.00 | 0.00 | 0.00 | 93 | 1008.0 |
| 20260506114002 | 22 | 46 | 0.0 | 3.2 | 0.00 | 0.00 | 0.00 | 93 | 1008.0 |
| 20260506113459 | 22 | 128 | 1.6 | 3.2 | 0.00 | 0.00 | 0.00 | 93 | 1007.9 |
| 20260506112956 | 22 | 89 | 0.0 | 3.2 | 0.00 | 0.00 | 0.00 | 92 | 1008.0 |
| 20260506112453 | 22 | 116 | 1.6 | 1.6 | 0.00 | 0.00 | 0.00 | 92 | 1008.0 |
| 20260506111950 | 22 | 137 | 0.0 | 3.2 | 0.00 | 0.00 | 0.00 | 92 | 1008.1 |
| 20260506111448 | 23 | 37 | 0.0 | 3.2 | 0.00 | 0.00 | 0.00 | 92 | 1007.9 |
| 20260506110945 | 23 | 89 | 0.0 | 1.6 | 0.00 | 0.00 | 0.00 | 92 | 1008.0 |
| 20260506110443 | 23 | 107 | 1.6 | 1.6 | 0.00 | 0.00 | 0.00 | 92 | 1007.9 |
| 20260506105939 | 23 | 96 | 1.6 | 3.2 | 0.00 | 0.00 | 0.00 | 92 | 1007.9 |
| 20260506105436 | 23 | 117 | 0.0 | 1.6 | 0.00 | 0.00 | 0.00 | 92 | 1008.1 |
| 20260506104933 | 23 | 103 | 1.6 | 1.6 | 0.00 | 0.00 | 0.00 | 91 | 1007.9 |
| 20260506104431 | 23 | 212 | 0.0 | 0.0 | 0.00 | 0.00 | 0.00 | 91 | 1008.0 |
| 20260506103929 | 23 | 147 | 0.0 | 1.6 | 0.00 | 0.00 | 0.00 | 91 | 1007.9 |
| 20260506103427 | 23 | 157 | 0.0 | 1.6 | 0.00 | 0.00 | 0.00 | 90 | 1007.8 |
| 20260506102923 | 23 | 142 | 1.6 | 3.2 | 0.00 | 0.00 | 0.00 | 90 | 1007.8 |
| 20260506102421 | 23 | 131 | 3.2 | 3.2 | 0.00 | 0.00 | 0.00 | 90 | 1007.7 |
| 20260506101918 | 23 | 132 | 1.6 | 3.2 | 0.00 | 0.00 | 0.00 | 90 | 1007.6 |
| 20260506101414 | 23 | 127 | 3.2 | 3.2 | 0.00 | 0.00 | 0.00 | 90 | 1007.8 |
| 20260506100912 | 23 | 160 | 1.6 | 4.8 | 0.00 | 0.00 | 0.00 | 90 | 1007.5 |
| 20260506100410 | 23 | 104 | 1.6 | 8.0 | 0.00 | 0.00 | 0.00 | 90 | 1007.4 |
| 20260506095908 | 23 | 116 | 1.6 | 3.2 | 0.00 | 0.00 | 0.00 | 90 | 1007.3 |
| 20260506095406 | 23 | 133 | 1.6 | 3.2 | 0.00 | 0.00 | 0.00 | 90 | 1007.4 |
| 20260506094902 | 23 | 138 | 3.2 | 3.2 | 0.00 | 0.00 | 0.00 | 91 | 1007.3 |
| 20260506094401 | 23 | 190 | 1.6 | 3.2 | 0.00 | 0.00 | 0.00 | 91 | 1007.3 |
| 20260506093858 | 23 | 118 | 1.6 | 3.2 | 0.00 | 0.00 | 0.00 | 91 | 1007.3 |
| 20260506093355 | 23 | 118 | 1.6 | 3.2 | 0.00 | 0.00 | 0.00 | 91 | 1007.3 |
| 20260506092853 | 23 | 124 | 0.0 | 3.2 | 0.00 | 0.00 | 0.00 | 91 | 1007.1 |
| 20260506092351 | 23 | 119 | 3.2 | 3.2 | 0.00 | 0.00 | 0.00 | 91 | 1007.0 |
| 20260506091847 | 23 | 122 | 1.6 | 3.2 | 0.00 | 0.00 | 0.00 | 90 | 1007.2 |
| 20260506091345 | 23 | 113 | 3.2 | 3.2 | 0.00 | 0.00 | 0.00 | 90 | 1007.1 |
| 20260506090842 | 23 | 126 | 3.2 | 3.2 | 0.00 | 0.00 | 0.00 | 89 | 1007.0 |
| 20260506090340 | 23 | 128 | 3.2 | 3.2 | 0.00 | 0.00 | 0.00 | 89 | 1007.0 |
| 20260506085836 | 23 | 124 | 0.0 | 3.2 | 0.00 | 0.00 | 0.00 | 88 | 1006.9 |
| 20260506085332 | 23 | 124 | 0.0 | 1.6 | 0.00 | 0.00 | 0.00 | 88 | 1006.9 |
| 20260506084829 | 23 | 110 | 3.2 | 3.2 | 0.00 | 0.00 | 0.00 | 88 | 1006.9 |
| 20260506084326 | 23 | 105 | 1.6 | 3.2 | 0.00 | 0.00 | 0.00 | 88 | 1006.9 |
| 20260506083822 | 23 | 117 | 0.0 | 3.2 | 0.00 | 0.00 | 0.00 | 88 | 1007.0 |
| 20260506083320 | 23 | 133 | 1.6 | 1.6 | 0.00 | 0.00 | 0.00 | 87 | 1006.9 |
| 20260506082818 | 23 | 120 | 1.6 | 3.2 | 0.00 | 0.00 | 0.00 | 87 | 1006.8 |
| 20260506082314 | 23 | 101 | 3.2 | 4.8 | 0.00 | 0.00 | 0.00 | 87 | 1006.9 |
| 20260506081810 | 23 | 126 | 3.2 | 4.8 | 0.00 | 0.00 | 0.00 | 87 | 1006.9 |
| 20260506081308 | 23 | 152 | 1.6 | 3.2 | 0.00 | 0.00 | 0.00 | 87 | 1006.9 |
| 20260506080806 | 24 | 115 | 0.0 | 3.2 | 0.00 | 0.00 | 0.00 | 87 | 1007.0 |
| 20260506080302 | 24 | 106 | 1.6 | 6.4 | 0.00 | 0.00 | 0.00 | 87 | 1007.1 |
| 20260506073246 | 24 | 149 | 4.8 | 9.7 | 0.00 | 0.00 | 0.00 | 86 | 1007.0 |
| 20260506072743 | 24 | 167 | 3.2 | 12.9 | 0.00 | 0.00 | 0.00 | 86 | 1006.9 |
| 20260506072240 | 24 | 145 | 4.8 | 14.5 | 0.00 | 0.00 | 0.00 | 86 | 1007.0 |
| 20260506071738 | 24 | 133 | 8.0 | 9.7 | 0.00 | 0.00 | 0.00 | 86 | 1007.1 |
| 20260506071236 | 24 | 118 | 3.2 | 9.7 | 0.00 | 0.00 | 0.00 | 86 | 1007.5 |
| 20260506070732 | 24 | 143 | 4.8 | 9.7 | 0.00 | 0.00 | 0.00 | 86 | 1007.0 |
| 20260506070229 | 24 | 129 | 6.4 | 8.0 | 0.00 | 0.00 | 0.00 | 87 | 1007.1 |
| 20260506062206 | 24 | 145 | 8.0 | 8.0 | 0.00 | 0.00 | 0.00 | 87 | 1007.0 |
| 20260506061702 | 24 | 150 | 4.8 | 8.0 | 0.00 | 0.00 | 0.00 | 87 | 1007.3 |
| 20260506061200 | 24 | 150 | 1.6 | 9.7 | 0.00 | 0.00 | 0.00 | 87 | 1007.0 |
| 20260506060658 | 24 | 132 | 3.2 | 8.0 | 0.00 | 0.00 | 0.00 | 87 | 1006.9 |
| 20260506060155 | 24 | 146 | 8.0 | 9.7 | 0.00 | 0.00 | 0.00 | 87 | 1006.8 |
| 20260506051127 | 24 | 116 | 1.6 | 4.8 | 0.00 | 0.00 | 0.00 | 87 | 1007.1 |
| 20260506050625 | 24 | 166 | 3.2 | 6.4 | 0.00 | 0.00 | 0.00 | 87 | 1007.2 |
| 20260506050122 | 24 | 140 | 6.4 | 8.0 | 0.00 | 0.00 | 0.00 | 87 | 1007.1 |
| 20260506045115 | 24 | 101 | 1.6 | 3.2 | 0.00 | 0.00 | 0.00 | 87 | 1007.0 |
| 20260506044613 | 24 | 161 | 3.2 | 9.7 | 0.00 | 0.00 | 0.00 | 87 | 1007.0 |
| 20260506044110 | 24 | 122 | 1.6 | 3.2 | 0.00 | 0.00 | 0.00 | 87 | 1007.1 |
| 20260506043607 | 24 | 145 | 3.2 | 4.8 | 0.00 | 0.00 | 0.00 | 87 | 1007.1 |
| 20260506043105 | 24 | 143 | 3.2 | 4.8 | 0.00 | 0.00 | 0.00 | 87 | 1007.0 |
| 20260506042604 | 24 | 84 | 0.0 | 4.8 | 0.00 | 0.00 | 0.00 | 87 | 1007.1 |
| 20260506042101 | 24 | 156 | 0.0 | 4.8 | 0.00 | 0.00 | 0.00 | 86 | 1006.9 |
| 20260506041600 | 24 | 142 | 3.2 | 6.4 | 0.00 | 0.00 | 0.00 | 86 | 1006.9 |
| 20260506041056 | 24 | 115 | 3.2 | 9.7 | 0.00 | 0.00 | 0.00 | 86 | 1006.9 |
| 20260506040554 | 24 | 135 | 3.2 | 6.4 | 0.00 | 0.00 | 0.00 | 86 | 1006.6 |
| 20260506040050 | 24 | 126 | 3.2 | 4.8 | 0.00 | 0.00 | 0.00 | 86 | 1006.6 |
| 20260506035548 | 25 | 141 | 3.2 | 6.4 | 0.00 | 0.00 | 0.00 | 86 | 1006.8 |
| 20260506035044 | 25 | 123 | 1.6 | 6.4 | 0.00 | 0.00 | 0.00 | 86 | 1006.6 |
| 20260506034541 | 25 | 133 | 3.2 | 4.8 | 0.00 | 0.00 | 0.00 | 85 | 1006.5 |
| 20260506034038 | 25 | 129 | 3.2 | 6.4 | 0.00 | 0.00 | 0.00 | 85 | 1006.5 |
| 20260506033536 | 25 | 137 | 1.6 | 6.4 | 0.00 | 0.00 | 0.00 | 85 | 1006.3 |
| 20260506033032 | 25 | 141 | 4.8 | 6.4 | 0.00 | 0.00 | 0.00 | 84 | 1006.4 |
| 20260506032530 | 25 | 149 | 6.4 | 6.4 | 0.00 | 0.00 | 0.00 | 84 | 1006.4 |
| 20260506032026 | 25 | 137 | 3.2 | 4.8 | 0.00 | 0.00 | 0.00 | 84 | 1006.3 |
| 20260506031524 | 25 | 124 | 4.8 | 6.4 | 0.00 | 0.00 | 0.00 | 83 | 1006.3 |
| 20260506031021 | 25 | 122 | 3.2 | 4.8 | 0.00 | 0.00 | 0.00 | 83 | 1006.1 |
| 20260506030519 | 25 | 148 | 0.0 | 4.8 | 0.00 | 0.00 | 0.00 | 83 | 1005.9 |
| 20260506030016 | 25 | 119 | 3.2 | 4.8 | 0.00 | 0.00 | 0.00 | 82 | 1005.9 |
| 20260506025513 | 25 | 107 | 1.6 | 3.2 | 0.00 | 0.00 | 0.00 | 82 | 1005.9 |
| 20260506025009 | 25 | 144 | 3.2 | 4.8 | 0.00 | 0.00 | 0.00 | 81 | 1005.9 |
| 20260506024506 | 25 | 128 | 3.2 | 3.2 | 0.00 | 0.00 | 0.00 | 81 | 1006.0 |
| 20260506024002 | 25 | 121 | 3.2 | 3.2 | 0.00 | 0.00 | 0.00 | 81 | 1005.7 |
| 20260506023458 | 25 | 97 | 0.0 | 1.6 | 0.00 | 0.00 | 0.00 | 81 | 1005.7 |
| 20260506022955 | 25 | 109 | 1.6 | 3.2 | 0.00 | 0.00 | 0.00 | 80 | 1005.4 |
| 20260506022453 | 25 | 140 | 6.4 | 6.4 | 0.00 | 0.00 | 0.00 | 80 | 1005.4 |
| 20260506021951 | 25 | 134 | 3.2 | 4.8 | 0.00 | 0.00 | 0.00 | 81 | 1005.2 |
| 20260506021448 | 25 | 128 | 1.6 | 3.2 | 0.00 | 0.00 | 0.00 | 81 | 1005.3 |
| 20260506020945 | 25 | 139 | 3.2 | 3.2 | 0.00 | 0.00 | 0.00 | 81 | 1005.2 |
| 20260506020443 | 25 | 121 | 0.0 | 3.2 | 0.00 | 0.00 | 0.00 | 80 | 1005.2 |
| 20260506015940 | 25 | 129 | 1.6 | 3.2 | 0.00 | 0.00 | 0.00 | 80 | 1005.3 |
| 20260506015437 | 25 | 121 | 1.6 | 3.2 | 0.00 | 0.00 | 0.00 | 80 | 1005.3 |
| 20260506014934 | 25 | 136 | 3.2 | 3.2 | 0.00 | 0.00 | 0.00 | 80 | 1004.9 |
| 20260506014431 | 25 | 116 | 1.6 | 3.2 | 0.00 | 0.00 | 0.00 | 79 | 1004.9 |
| 20260506013927 | 25 | 142 | 1.6 | 4.8 | 0.00 | 0.00 | 0.00 | 79 | 1004.9 |
| 20260506013426 | 26 | 141 | 0.0 | 3.2 | 0.00 | 0.00 | 0.00 | 78 | 1004.9 |
| 20260506012921 | 26 | 108 | 1.6 | 3.2 | 0.00 | 0.00 | 0.00 | 78 | 1004.9 |
| 20260506012418 | 26 | 114 | 1.6 | 4.8 | 0.00 | 0.00 | 0.00 | 77 | 1004.8 |
| 20260506011915 | 26 | 124 | 1.6 | 3.2 | 0.00 | 0.00 | 0.00 | 76 | 1004.8 |
| 20260506011412 | 26 | 116 | 3.2 | 4.8 | 0.00 | 0.00 | 0.00 | 76 | 1004.5 |
| 20260506010909 | 26 | 131 | 0.0 | 6.4 | 0.00 | 0.00 | 0.00 | 75 | 1004.7 |
| 20260506010408 | 26 | 114 | 3.2 | 3.2 | 0.00 | 0.00 | 0.00 | 75 | 1004.8 |
| 20260506005904 | 27 | 126 | 3.2 | 3.2 | 0.00 | 0.00 | 0.00 | 74 | 1004.7 |
| 20260506005402 | 27 | 157 | 3.2 | 4.8 | 0.00 | 0.00 | 0.00 | 73 | 1004.7 |
| 20260506004856 | 27 | 130 | 0.0 | 4.8 | 0.00 | 0.00 | 0.00 | 73 | 1004.7 |
| 20260506004355 | 27 | 182 | 0.0 | 6.4 | 0.00 | 0.00 | 0.00 | 72 | 1004.6 |
| 20260506003851 | 27 | 146 | 3.2 | 4.8 | 0.00 | 0.00 | 0.00 | 73 | 1004.7 |
| 20260506003347 | 27 | 130 | 3.2 | 4.8 | 0.00 | 0.00 | 0.00 | 72 | 1004.5 |
| 20260506002843 | 27 | 145 | 3.2 | 3.2 | 0.00 | 0.00 | 0.00 | 72 | 1004.7 |
| 20260506002340 | 27 | 160 | 3.2 | 6.4 | 0.00 | 0.00 | 0.00 | 71 | 1004.7 |
| 20260506001835 | 27 | 144 | 1.6 | 4.8 | 0.00 | 0.00 | 0.00 | 71 | 1004.6 |
| 20260506001333 | 27 | 134 | 3.2 | 4.8 | 0.00 | 0.00 | 0.00 | 72 | 1004.6 |
| 20260506000830 | 27 | 142 | 3.2 | 4.8 | 0.00 | 0.00 | 0.00 | 71 | 1004.8 |
| 20260506000329 | 27 | 109 | 0.0 | 4.8 | 0.00 | 0.00 | 0.00 | 71 | 1004.8 |
| 20260505235824 | 27 | 139 | 3.2 | 4.8 | 0.00 | 0.00 | 0.00 | 71 | 1004.6 |
| 20260505235322 | 27 | 134 | 4.8 | 4.8 | 0.00 | 0.00 | 0.00 | 70 | 1004.8 |
| 20260505234818 | 27 | 146 | 6.4 | 6.4 | 0.00 | 0.00 | 0.00 | 70 | 1005.0 |
| 20260505234316 | 27 | 107 | 1.6 | 6.4 | 0.00 | 0.00 | 0.00 | 71 | 1004.8 |
| 20260505233813 | 27 | 188 | 1.6 | 6.4 | 0.00 | 0.00 | 0.00 | 70 | 1004.6 |
| 20260505233311 | 27 | 187 | 3.2 | 4.8 | 0.00 | 0.00 | 0.00 | 70 | 1004.6 |
| 20260505232808 | 27 | 165 | 4.8 | 4.8 | 0.00 | 0.00 | 0.00 | 69 | 1004.5 |
| 20260505232306 | 28 | 174 | 3.2 | 4.8 | 0.00 | 0.00 | 0.00 | 69 | 1004.6 |
| 20260505231802 | 28 | 148 | 4.8 | 6.4 | 0.00 | 0.00 | 0.00 | 69 | 1004.6 |
| 20260505231300 | 28 | 112 | 1.6 | 6.4 | 0.00 | 0.00 | 0.00 | 68 | 1004.4 |
| 20260505230758 | 28 | 132 | 3.2 | 6.4 | 0.00 | 0.00 | 0.00 | 68 | 1004.2 |
| 20260505230255 | 28 | 143 | 1.6 | 6.4 | 0.00 | 0.00 | 0.00 | 69 | 1004.2 |
| 20260505225751 | 28 | 142 | 3.2 | 6.4 | 0.00 | 0.00 | 0.00 | 68 | 1004.1 |
| 20260505225249 | 28 | 134 | 6.4 | 6.4 | 0.00 | 0.00 | 0.00 | 68 | 1004.2 |
| 20260505224743 | 28 | 160 | 1.6 | 4.8 | 0.00 | 0.00 | 0.00 | 68 | 1004.0 |
| 20260505224241 | 28 | 213 | 3.2 | 6.4 | 0.00 | 0.00 | 0.00 | 68 | 1004.1 |
| 20260505223739 | 28 | 149 | 3.2 | 4.8 | 0.00 | 0.00 | 0.00 | 68 | 1004.1 |
| 20260505223235 | 28 | 141 | 4.8 | 11.3 | 0.00 | 0.00 | 0.00 | 68 | 1004.3 |
| 20260505222731 | 28 | 134 | 0.0 | 9.7 | 0.00 | 0.00 | 0.00 | 66 | 1004.2 |
| 20260505222227 | 28 | 199 | 3.2 | 9.7 | 0.00 | 0.00 | 0.00 | 67 | 1004.2 |
| 20260505221725 | 28 | 151 | 3.2 | 9.7 | 0.00 | 0.00 | 0.00 | 68 | 1004.1 |
| 20260505221221 | 28 | 185 | 4.8 | 4.8 | 0.00 | 0.00 | 0.00 | 67 | 1004.0 |
| 20260505220718 | 28 | 180 | 1.6 | 9.7 | 0.00 | 0.00 | 0.00 | 67 | 1004.0 |
| 20260505220216 | 28 | 172 | 1.6 | 11.3 | 0.00 | 0.00 | 0.00 | 67 | 1004.0 |
| 20260505215714 | 28 | 149 | 4.8 | 8.0 | 0.00 | 0.00 | 0.00 | 66 | 1004.3 |
| 20260505215211 | 29 | 151 | 6.4 | 9.7 | 0.00 | 0.00 | 0.00 | 66 | 1004.4 |
| 20260505214709 | 29 | 140 | 3.2 | 11.3 | 0.00 | 0.00 | 0.00 | 66 | 1004.4 |
| 20260505214206 | 29 | 164 | 3.2 | 8.0 | 0.00 | 0.00 | 0.00 | 67 | 1004.5 |
| 20260505213703 | 29 | 140 | 4.8 | 8.0 | 0.00 | 0.00 | 0.00 | 66 | 1004.7 |
| 20260505213201 | 29 | 126 | 3.2 | 6.4 | 0.00 | 0.00 | 0.00 | 67 | 1004.3 |
| 20260505212656 | 29 | 125 | 4.8 | 8.0 | 0.00 | 0.00 | 0.00 | 65 | 1004.6 |
| 20260505212154 | 30 | 145 | 9.7 | 9.7 | 0.00 | 0.00 | 0.00 | 66 | 1004.8 |
| 20260505211650 | 29 | 170 | 3.2 | 6.4 | 0.00 | 0.00 | 0.00 | 65 | 1004.7 |
| 20260505211148 | 29 | 141 | 4.8 | 8.0 | 0.00 | 0.00 | 0.00 | 66 | 1004.8 |
| 20260505210644 | 29 | 208 | 3.2 | 17.7 | 0.00 | 0.00 | 0.00 | 68 | 1005.0 |
| 20260505210141 | 29 | 152 | 3.2 | 14.5 | 0.00 | 0.00 | 0.00 | 66 | 1005.1 |
| 20260505205638 | 28 | 139 | 4.8 | 9.7 | 0.00 | 0.00 | 0.00 | 68 | 1005.0 |
| 20260505205137 | 28 | 151 | 3.2 | 11.3 | 0.00 | 0.00 | 0.00 | 68 | 1005.1 |
| 20260505204633 | 28 | 150 | 3.2 | 8.0 | 0.00 | 0.00 | 0.00 | 68 | 1005.1 |
| 20260505204131 | 28 | 130 | 0.0 | 6.4 | 0.00 | 0.00 | 0.00 | 68 | 1004.8 |
| 20260505203627 | 28 | 141 | 6.4 | 8.0 | 0.00 | 0.00 | 0.00 | 67 | 1005.1 |
| 20260505203125 | 28 | 172 | 4.8 | 8.0 | 0.00 | 0.00 | 0.00 | 68 | 1005.1 |
| 20260505202620 | 28 | 162 | 6.4 | 9.7 | 0.00 | 0.00 | 0.00 | 67 | 1005.2 |
| 20260505202116 | 28 | 97 | 3.2 | 6.4 | 0.00 | 0.00 | 0.00 | 67 | 1005.4 |
| 20260505201613 | 28 | 167 | 4.8 | 11.3 | 0.00 | 0.00 | 0.00 | 67 | 1005.6 |
| 20260505201111 | 28 | 187 | 3.2 | 8.0 | 0.00 | 0.00 | 0.00 | 68 | 1005.5 |
| 20260505200609 | 28 | 169 | 4.8 | 8.0 | 0.00 | 0.00 | 0.00 | 70 | 1005.6 |
| 20260505200106 | 28 | 175 | 6.4 | 8.0 | 0.00 | 0.00 | 0.00 | 67 | 1005.5 |
| 20260505195601 | 28 | 205 | 8.0 | 14.5 | 0.00 | 0.00 | 0.00 | 67 | 1005.4 |
| 20260505195059 | 28 | 185 | 3.2 | 8.0 | 0.00 | 0.00 | 0.00 | 67 | 1005.4 |
| 20260505194556 | 28 | 145 | 9.7 | 11.3 | 0.00 | 0.00 | 0.00 | 67 | 1005.5 |
| 20260505194052 | 28 | 197 | 6.4 | 8.0 | 0.00 | 0.00 | 0.00 | 68 | 1005.7 |
| 20260505193549 | 28 | 172 | 3.2 | 9.7 | 0.00 | 0.00 | 0.00 | 67 | 1005.8 |
| 20260505193046 | 28 | 139 | 6.4 | 9.7 | 0.00 | 0.00 | 0.00 | 68 | 1006.0 |
| 20260505192545 | 28 | 150 | 8.0 | 8.0 | 0.00 | 0.00 | 0.00 | 69 | 1005.9 |
| 20260505192042 | 28 | 208 | 3.2 | 9.7 | 0.00 | 0.00 | 0.00 | 69 | 1005.8 |
| 20260505191540 | 28 | 176 | 3.2 | 6.4 | 0.00 | 0.00 | 0.00 | 69 | 1005.8 |
| 20260505191038 | 27 | 211 | 6.4 | 8.0 | 0.00 | 0.00 | 0.00 | 69 | 1005.9 |
| 20260505190532 | 27 | 205 | 3.2 | 12.9 | 0.00 | 0.00 | 0.00 | 70 | 1006.2 |
| 20260505190029 | 27 | 140 | 6.4 | 11.3 | 0.00 | 0.00 | 0.00 | 68 | 1006.2 |
| 20260505185525 | 27 | 136 | 3.2 | 8.0 | 0.00 | 0.00 | 0.00 | 71 | 1006.0 |
| 20260505185022 | 27 | 148 | 8.0 | 11.3 | 0.00 | 0.00 | 0.00 | 68 | 1006.2 |
| 20260505184519 | 27 | 125 | 3.2 | 11.3 | 0.00 | 0.00 | 0.00 | 72 | 1006.4 |
| 20260505184015 | 27 | 134 | 3.2 | 9.7 | 0.00 | 0.00 | 0.00 | 71 | 1006.5 |
| 20260505183512 | 27 | 157 | 6.4 | 12.9 | 0.00 | 0.00 | 0.00 | 70 | 1006.8 |
| 20260505183009 | 26 | 197 | 1.6 | 6.4 | 0.00 | 0.00 | 0.00 | 72 | 1006.9 |
| 20260505182506 | 26 | 204 | 6.4 | 12.9 | 0.00 | 0.00 | 0.00 | 70 | 1007.2 |
| 20260505182002 | 26 | 164 | 4.8 | 17.7 | 0.00 | 0.00 | 0.00 | 71 | 1006.9 |
| 20260505181459 | 26 | 136 | 6.4 | 8.0 | 0.00 | 0.00 | 0.00 | 75 | 1006.9 |
| 20260505180956 | 26 | 140 | 4.8 | 8.0 | 0.00 | 0.00 | 0.00 | 74 | 1007.1 |
| 20260505180452 | 25 | 136 | 6.4 | 8.0 | 0.00 | 0.00 | 0.00 | 75 | 1007.0 |